STARLINK-35602

Last updated on Wed Dec 10 2025 00:02:05 GMT+0000 (Coordinated Universal Time)

1 66403U 25257Z 25343.66668981 .00099266 00000+0 24650-2 0 9997 2 66403 53.1586 278.5660 0001167 102.4875 220.1738 15.39551040 6007
UTC large
Height (km)
Speed (km/s)
/
Latitude / Longitude
Inclination (degrees)
Orbital Period (minutes)
Azimuth
Elevation
Range (km)
Doppler Factor

Next 0 passes for location: London (51.5072 / 0.1276)

Sorry there are no passes over London.